Content
SEND FEEDBACK

Daily
Averages
Monthly
Summary
Canada

QUEBEC CITY, QUEBEC


Home > North America > Canada > Quebec
Elevation: 72 meters     Latitude: 46 48N     Longitude: 071 23W

WEATHER
 
SELECT A DAY
Number of Records: 198,140;   Date Range: 6/30/96 - 12/20/14
 
SHARE

PRINT THIS DATA

[ ← Previous Day ]
WEATHER ALMANAC - 12 FEBRUARY, 2014
[ Next Day → ]
[ °F ]   °C
Weather ElementAverageHighLow
Temperature-16.9 °C-11.7 °C (4:00 pm)-27.2 °C (7:00 am)
Dewpoint-23.4 °C-21 °C (11:00 am)-30.6 °C (7:00 am)
Humidity54.9 %66 % (11:00 am)29 % (4:00 pm)
Barometer1031.5 hPa1034.5 hPa (8:00 am)1026.8 hPa (11:00 pm)
Wind Speed11.6 km/h25.9 km/h (11:00 am)
Weather ElementAverage
Visibility35.7 km
Wind DirectionSSW (202.6 °)

Weather ElementTotal
Precipitation---
Heating Degree Days37.8 (Base 18.3)
Averaged from 31 records on 12 February, 2014
WEATHER CONDITIONS BREAKOUT
WIND DIRECTION BREAKOUT
WEATHER BY HOUR - 12 FEBRUARY, 2014
[ °F ]   °C
Local TimeTemperatureDewpointHumidityBarometerVisibilityWind DirectionWind SpeedGust SpeedPrecipitationEventsConditions
1:00 AM-18.9 °C-25 °C43 %1030.8 hPaWSW (250°)16.7 km/h
1:00 AM-20 °C-26 °C60 %1030.8 hPa24.1 kmWSW (240°)16.7 km/hClear
2:00 AM-19 °C-25 °C60 %1031.8 hPa24.1 kmWSW (250°)24.1 km/hClear
3:00 AM-21 °C-26 °C65 %1031.5 hPa24.1 kmSSW (210°)13 km/hClear
4:00 AM-22.2 °C-26.7 °C54 %1032.8 hPaWSW (240°)1.9 km/h
4:00 AM-21 °C-26 °C65 %1032.8 hPa24.1 kmSW (230°)14.8 km/hClear
5:00 AM-22 °C-27 °C65 %1033.2 hPa24.1 kmSW (220°)7.4 km/hClear
6:00 AM-22 °C-27 °C65 %1033.9 hPa24.1 kmSW (230°)18.5 km/hPartly Cloudy
7:00 AM-27.2 °C-30.6 °C61 %1034.2 hPaWest (270°)1.9 km/h
7:00 AM-22 °C-27 °C65 %1034.2 hPa48.3 kmWest (260°)13 km/hPartly Cloudy
8:00 AM-20 °C-25 °C65 %1034.5 hPa48.3 kmSW (220°)22.2 km/hPartly Cloudy
9:00 AM-19 °C-25 °C60 %1034.5 hPa48.3 kmSW (230°)18.5 km/hScattered Clouds
10:00 AM-16.7 °C-23.3 °C43 %1034.5 hPaSW (230°)9.3 km/h
10:00 AM-17 °C-23 °C61 %1034.5 hPa48.3 kmSW (220°)20.4 km/hMostly Cloudy
11:00 AM-16 °C-21 °C66 %1034.5 hPa48.3 kmSW (230°)25.9 km/hMostly Cloudy
12:00 PM-14 °C-22 °C52 %1033.9 hPa48.3 kmSW (220°)22.2 km/hMostly Cloudy
1:00 PM-12.2 °C-21.7 °C31 %1033.2 hPaWSW (240°)13 km/h
1:00 PM-13 °C-21 °C52 %1033.2 hPa48.3 kmWSW (250°)18.5 km/hMostly Cloudy
2:00 PM-12 °C-21 °C48 %1032.5 hPa48.3 kmWSW (250°)14.8 km/hMostly Cloudy
3:00 PM-12 °C-21 °C48 %1031.2 hPa48.3 kmWSW (250°)7.4 km/hOvercast
4:00 PM-11.7 °C-21.1 °C29 %1030.5 hPaWSW (250°)7.4 km/h
4:00 PM-12 °C-21 °C48 %1030.5 hPa48.3 kmWest (260°)5.6 km/hOvercast
5:00 PM-12 °C-21 °C48 %1029.8 hPa48.3 kmWest (270°)3.7 km/hOvercast
6:00 PM-14 °C-21 °C56 %1029.8 hPa24.1 kmCalmMostly Cloudy
7:00 PM-16.7 °C-21.1 °C55 %1029.1 hPaNorth1.9 km/h
7:00 PM-14 °C-22 °C52 %1029.1 hPa24.1 kmNNE (20°)5.6 km/hMostly Cloudy
8:00 PM-14 °C-21 °C56 %1027.8 hPa24.1 kmNorth (360°)5.6 km/hMostly Cloudy
9:00 PM-15 °C-22 °C56 %1027.8 hPa24.1 kmNorth (10°)9.3 km/hMostly Cloudy
10:00 PM-16.1 °C-21.7 °C50 %1027.1 hPaNorth3.7 km/h
10:00 PM-15 °C-22 °C56 %1027.1 hPa24.1 kmNorth (10°)9.3 km/hOvercast
11:00 PM-17 °C-22 °C66 %1026.8 hPa24.1 kmNorth (360°)7.4 km/hOvercast
Hourly data recorded from CYQB, located 0 kilometers away from Quebec City, Quebec







STORIES FROM OUR PARTNERS